Location: Ocean City
(38.3360°N, 75.0850°W)
Time: 07:06:57
(UTC-05:00)

A-11 Canister half - Visible Passes

Search period start: 14 November 2019 00:00
Search period end: 24 November 2019 00:00
Orbit: 1514 x 1686 km, 47.2° (Epoch: 13 November)

Date Brightness Start Highest point End Pass type
(mag) Time Alt. Az. Time Alt. Az. Time Alt. Az.
14 Nov 10.8 03:49:20 12° SSW 03:49:20 12° SSW 03:50:04 10° S visible
14 Nov 9.1 18:48:32 10° SW 18:58:40 85° SSE 19:03:09 40° ENE visible
14 Nov 9.9 20:54:34 10° W 21:01:21 42° WNW 21:01:21 42° WNW visible
15 Nov 9.1 18:25:36 10° SW 18:35:43 82° SE 18:41:37 30° ENE visible
15 Nov 9.6 20:31:31 10° W 20:39:50 51° NW 20:39:50 51° NW visible
16 Nov 9.1 18:02:42 10° SW 18:12:46 79° SE 18:20:02 22° ENE visible
16 Nov 9.4 20:08:28 10° W 20:18:14 57° NNW 20:18:14 57° NNW visible
16 Nov 11.1 22:15:06 10° WNW 22:16:27 15° WNW 22:16:27 15° WNW visible
17 Nov 9.2 17:39:48 10° SW 17:49:49 75° SE 17:58:26 16° ENE visible
17 Nov 9.3 19:45:25 10° W 19:55:25 58° NNW 19:56:38 55° N visible
17 Nov 10.8 21:52:05 10° WNW 21:54:49 21° WNW 21:54:49 21° WNW visible
18 Nov 9.3 17:16:55 10° SW 17:26:53 72° SE 17:36:47 11° ENE visible
18 Nov 9.4 19:22:23 10° W 19:32:23 60° NNW 19:34:59 48° NNE visible
18 Nov 10.5 21:29:03 10° WNW 21:33:11 27° NW 21:33:11 27° NW visible
19 Nov 9.3 16:54:04 10° SW 17:03:57 68° SE 17:14:01 10° ENE visible
19 Nov 9.4 18:59:21 10° W 19:09:22 61° NNW 19:13:19 40° NE visible
19 Nov 10.2 21:06:02 10° WNW 21:11:30 34° NW 21:11:30 34° NW visible
20 Nov 9.4 18:36:20 10° W 18:46:20 63° NNW 18:51:38 32° NE visible
20 Nov 9.9 20:42:59 10° WNW 20:49:49 41° NW 20:49:49 41° NW visible
21 Nov 9.4 18:13:18 10° WSW 18:23:19 64° NNW 18:29:56 25° NE visible
21 Nov 9.7 20:19:58 10° WNW 20:28:07 48° NNW 20:28:07 48° NNW visible
21 Nov 11.3 22:25:48 10° WNW 22:26:19 12° WNW 22:26:19 12° WNW visible
22 Nov 9.4 17:50:17 10° WSW 18:00:18 66° NNW 18:08:13 19° ENE visible
22 Nov 9.5 19:56:56 10° WNW 20:06:25 52° N 20:06:25 52° N visible
22 Nov 11.0 22:02:48 10° WNW 22:04:36 17° WNW 22:04:36 17° WNW visible
23 Nov 9.4 17:27:17 10° WSW 17:37:17 68° NNW 17:46:30 14° ENE visible
23 Nov 9.4 19:33:54 10° WNW 19:43:46 52° N 19:44:42 50° NNE visible
23 Nov 10.7 21:39:50 10° WNW 21:42:53 23° WNW 21:42:53 23° WNW visible
